Miscellaneous Local Product
Issued by NWS Hastings, NE

Home | Current Version | Previous Version | Graphics & Text | Print | Product List | Glossary On
Versions: 1 2 3 4 5 6 7 8 9 10 11 12 13 14 15 16 17 18 19 20 21 22 23 24 25 26 27 28 29 30 31 32 33 34 35 36 37 38 39 40 41 42 43 44 45 46 47 48 49 50
000
AXUS43 KGID 220902
MISGRI

GID CWA HOURLY WEATHER ROUNDUP
NATIONAL WEATHER SERVICE HASTINGS NE
400 AM CDT THU JUN 22 2017

NOTE: "FAIR" INDICATES FEW OR NO CLOUDS BELOW 12,000 FEET WITH NO
SIGNIFICANT WEATHER AND/OR OBSTRUCTIONS TO VISIBILITY.

...SOUTH CENTRAL NEBRASKA...

CITY           SKY/WX    TMP DP  RH WIND       PRES   REMARKS
GRAND ISLAND   CLOUDY    71  58  63 VRB6      29.70R
HASTINGS       PTCLDY    76  55  48 S7        29.71R
KEARNEY        CLEAR     77  55  47 SW20G28   29.69F
ORD            CLEAR     75  58  55 SW12      29.65F
YORK           MOCLDY    75  55  50 S9        29.68R
AURORA         CLOUDY    69  60  73 CALM      29.68R
LEXINGTON      CLEAR     77  56  49 S18       29.70F
HOLDREGE       CLEAR     71  57  60 SW13G18   29.72F
HEBRON         CLOUDY    79  58  48 S21G30    29.70R

...NEBRASKA PANHANDLE...

CITY           SKY/WX    TMP DP  RH WIND       PRES   REMARKS
CHADRON        PTCLDY    64  52  64 NE14G21   29.71F
ALLIANCE       CLEAR     63  49  60 S5        29.70F
SCOTTSBLUFF    PTCLDY    63  50  62 NE6       29.74R
SIDNEY         CLOUDY    64  47  53 SW10      29.80F

...WESTERN AND NORTH CENTRAL NEBRASKA...

CITY           SKY/WX    TMP DP  RH WIND       PRES   REMARKS
VALENTINE      CLEAR     70  61  73 N8        29.68F
AINSWORTH      CLEAR     70  66  88 SE6       29.68R
ONEILL         CLEAR     70  68  93 S7        29.65F
BROKEN BOW     CLEAR     76  60  57 S17G26    29.68F
IMPERIAL       CLEAR     71  51  49 SW12      29.74F
NORTH PLATTE   PTCLDY    76  56  49 S20G29    29.69F
MCCOOK         PTCLDY    72  56  57 S13       29.73F

...EASTERN NEBRASKA...

CITY           SKY/WX    TMP DP  RH WIND       PRES   REMARKS
NORFOLK        CLEAR     71  58  63 SE6       29.64F
SO SIOUX CITY  CLOUDY    76  60  57 S8        29.62F
TEKAMAH        MOCLDY    79  60  52 S16       29.64F
COLUMBUS       PTCLDY    74  58  57 S9        29.66F
ALBION         CLEAR     73  61  66 S6        29.67R
OMAHA EPPLEY   CLOUDY    80  61  52 S17       29.68F
OFFUTT AFB     PTCLDY    78  60  54 S10       29.70S
MILLARD        CLOUDY    81  62  53 S8G16     29.69F
LINCOLN        MOCLDY    78  60  53 S16       29.67F
NEBRASKA CITY  CLOUDY    77  60  56 S17G23    29.72F
BEATRICE       CLOUDY    78  61  54 S12G18    29.71S
FALLS CITY     CLOUDY    75  61  61 S13       29.75F

...NORTHERN KANSAS...

CITY           SKY/WX    TMP DP  RH WIND       PRES   REMARKS
GOODLAND       CLEAR     73  56  54 S17G26    29.80F
HILL CITY      CLEAR     67  61  81 SW6       29.76F
NORTON         SUNNY     70  55  60 S8        29.73F
PHILLIPSBURG   CLEAR     73  54  49 S7        29.72F
SMITH CENTER   CLEAR     66  59  77 SE12      29.72S
RUSSELL        PTCLDY    72  57  59 SE12      29.75S
CONCORDIA      CLOUDY    74  62  66 S21G33    29.72F
SALINA         CLOUDY    78  60  53 S8        29.78F
TOPEKA         PTCLDY    74  64  71 S7        29.80F



USA.gov is the U.S. government's official web portal to all federal, state and local government web resources and services.